Regional Weather Roundup
Issued by NWS

Home | Current Version | Previous Version | Graphics & Text | Print | Product List | Glossary On
Versions: 1 2 3 4 5 6 7 8 9 10 11 12 13 14 15 16 17 18 19 20 21 22 23 24 25 26 27 28 29 30 31 32 33 34 35 36 37 38 39 40 41 42 43 44 45 46 47 48 49 50
000
ASUS43 KIND 210009
RWRIN

WEATHER ROUNDUP FOR INDIANA
NATIONAL WEATHER SERVICE INDIANAPOLIS IN
800 PM EDT MON APR 20 2015

NOTE: "FAIR" INDICATES FEW OR NO CLOUDS BELOW 12,000 FEET WITH NO
SIGNIFICANT WEATHER AND/OR OBSTRUCTIONS TO VISIBILITY.

* - STATION DOES NOT REPORT WEATHER SUCH AS PRECIPITATION OR FOG.

+ - STATION NOT QUALITY CONTROLLED BY THE NATIONAL WEATHER SERVICE.
    USE DATA WITH CAUTION...ESPECIALLY DEWPOINT AND RELATIVE
    HUMIDITY OBSERVATIONS.

INZ001>003-010>013-019-020-210100-
NORTHWEST INDIANA

CITY           SKY/WX    TMP DP  RH WIND       PRES   REMARKS
GARY /AIRPORT/ MOCLDY    48  27  43 W31G43    29.60R
KNOX *+        CLOUDY    46  21  36 W22G30    29.60R
LA PORTE +     CLOUDY    48  34  56 W17G25    29.59R
6HR MIN TEMP:  47; 6HR MAX TEMP:  51;

MICHIGAN CITY+ CLOUDY    46  30  53 W10G22    29.59R
MONTICELLO +   CLOUDY    46  35  64 W14G24    29.65R
6HR MIN TEMP:  46; 6HR MAX TEMP:  50;

RENSSELAER +   CLOUDY    46  36  66 W17G24    29.64R
VALPARAISO     CLOUDY    46  32  58 W23G36    29.61R
6HR MIN TEMP:  46; 6HR MAX TEMP:  51; 6HR PCP: TRACE;


$$

LMZ046-743>745-210100-
SOUTHERN LAKE MICHIGAN

STATION/POSITION TIME  TEMP    WIND        PRES    WAVE
                       AIR SEA DIR/SP/G            HT
                 (UTC) (F)     (DEG/KT/KT) (MB)    (FT)
BURNS HARBOR     0000   48     260/ 24/ 31 1002.0R
MICHIGAN CITY    0000   46     230/ 30/ 34   N/A
5NW MICH CITY    0000   46 45  270/ 19/ 27   N/A     5

$$

INZ004-005-014>016-021>024-210100-
NORTH CENTRAL INDIANA

CITY           SKY/WX    TMP DP  RH WIND       PRES   REMARKS
ELKHART        CLOUDY    46  32  57 W14G21    29.57R
GOSHEN         CLOUDY    48  35  60 W17       29.57R
6HR MIN TEMP:  47; 6HR MAX TEMP:  51;

LOGANSPORT +   CLOUDY    45  37  76 W18G28    29.65R
ROCHESTER +    CLOUDY    50  34  53 W17G29    29.62R
SOUTH BEND     CLOUDY    47  35  63 W14       29.58R
6HR MIN TEMP:  47; 6HR MAX TEMP:  49; 6HR PCP: TRACE;

WARSAW +       CLOUDY    46  36  66 W18G24    29.59R

$$

INZ006>009-017-018-025>027-210100-
NORTHEAST INDIANA

CITY           SKY/WX    TMP DP  RH WIND       PRES   REMARKS
ANGOLA *+      MOCLDY    46  37  71 W15       29.54R
AUBURN +       MOCLDY    48  34  57 W16G25    29.58R
FORT WAYNE     CLOUDY    48  37  65 W16       29.60R
6HR MIN TEMP:  48; 6HR MAX TEMP:  52; 6HR PCP:  0.01;

HUNTINGTON +   CLOUDY    47  32  55 W15G25    29.61R
6HR MIN TEMP:  47; 6HR MAX TEMP:  51;


$$

INZ028-029-035-036-043>045-051>053-210100-
WEST CENTRAL INDIANA

CITY           SKY/WX    TMP DP  RH WIND       PRES   REMARKS
CRAWFORDSVL +  CLOUDY    46  31  56 W21       29.70R
6HR MIN TEMP:  46; 6HR MAX TEMP:  50;

GREENCASTLE +  CLOUDY    46  32  57 W14G20    29.72R
LAFAYETTE      CLOUDY    46  37  71 W12       29.67R
6HR MIN TEMP:  44; 6HR MAX TEMP:  51; 6HR PCP: TRACE;

TERRE HAUTE    CLOUDY    51  35  54 W13       29.73R
6HR MIN TEMP:  51; 6HR MAX TEMP:  56; 6HR PCP: TRACE;


$$

INZ030>032-037>040-046>048-054>057-064-065-210100-
CENTRAL INDIANA

CITY           SKY/WX    TMP DP  RH WIND       PRES   REMARKS
CP ATTERBURY + CLOUDY    52  36  54 W10G25    29.71R
FRANKFORT +    MOCLDY    47  38  71 W13G28    29.69R
6HR MIN TEMP:  47; 6HR MAX TEMP:  51;

GREENWOOD *+   CLOUDY    50  34  53 W17       29.71R
INDIANAPOLIS   CLOUDY    49  36  61 W20G25    29.68R
6HR MIN TEMP:  48; 6HR MAX TEMP:  56; 6HR PCP: TRACE;

-EAGLE CREEK   CLOUDY    49  35  58 W20G28    29.69R
6HR MIN TEMP:  49; 6HR MAX TEMP:  53; 6HR PCP: TRACE;

KOKOMO *+      PTCLDY    46  36  66 W23G37    29.65R
6HR MIN TEMP:  46; 6HR MAX TEMP:  52;

MARION +       CLOUDY    48  37  66 W20       29.65R
MT COMFORT *+  PTCLDY    48  30  49 W22       29.69R
SHELBYVILLE    CLOUDY    51  37  58 W21       29.69R
6HR MIN TEMP:  50; 6HR MAX TEMP:  58; 6HR PCP: TRACE;

ZIONSVILLE +   CLOUDY    49  35  58 W20G25    29.69R
6HR MIN TEMP:  49; 6HR MAX TEMP:  53;


$$

INZ033-034-041-042-049-050-058-059-210100-
EAST CENTRAL INDIANA

CITY           SKY/WX    TMP DP  RH WIND       PRES   REMARKS
MUNCIE         CLOUDY    50  38  63 W16G23    29.65R
6HR MIN TEMP:  49; 6HR MAX TEMP:  55; 6HR PCP: TRACE;


$$

INZ060-061-067>069-081>083-085>088-210100-
SOUTHWEST INDIANA

CITY           SKY/WX    TMP DP  RH WIND       PRES   REMARKS
EVANSVILLE     CLOUDY    56  37  49 NW7       29.78R
6HR MIN TEMP:  56; 6HR MAX TEMP:  61;

HUNTINGBURG *+ CLOUDY    54  37  54 W16       29.77R
6HR MIN TEMP:  54; 6HR MAX TEMP:  61;

WASHINGTON +   CLOUDY    52  33  47 W13       29.76R
6HR MIN TEMP:  52; 6HR MAX TEMP:  58;


$$

INZ062-063-066-070>080-084-089>092-210100-
SOUTH CENTRAL AND SOUTHEAST INDIANA

CITY           SKY/WX    TMP DP  RH WIND       PRES   REMARKS
BLOOMINGTON    CLOUDY    50  35  56 W14G23    29.73R
6HR MIN TEMP:  50; 6HR MAX TEMP:  57; 6HR PCP: TRACE;

MADISON *+     CLOUDY    54  34  47 W17G29    29.73R
NORTH VERNON + RAIN      54  37  54 W22G31    29.72R

$$




USA.gov is the U.S. government's official web portal to all federal, state and local government web resources and services.